[[{"header":{"parameterUnit":"m.s-1","parameterCategory":1,"la1":30.2991,"la2":30.254,"lo1":-89.0895,"lo2":-89.0444,"dy":0.0017,"dx":0.0017,"nx":28,"ny":28,"refTime":"2025-12-11T09:00:00:Z","depth":0,"parameterNumber":2,"parameterNumberName":"U-component_of_WINDS"},"data":[0,0,0,0,0,0,0,0,0,0,0,0,0,0,0,0,0,0,0,0,0,0,0,0,0,0,0,0,0,0,0,0,0,0,0,0,0,0,0,0,0,0,0,0,0,0,0,0,0,0,0,0,0,0,0,0,0,0,-0.4186,-0.4185,0,-0.4096,-0.4095,-0.4094,-0.401,-0.4009,-0.4008,-0.4007,-0.3916,-0.3915,-0.3913,0,0,0,0,0,0,0,0,0,0,0,0,0,-0.4289,-0.4288,-0.4186,-0.4185,-0.4184,-0.4096,-0.4095,-0.4093,-0.401,-0.4009,-0.4008,-0.4007,-0.3917,-0.3915,-0.3913,0,0,0,0,0,0,0,0,0,0,0,0,0,-0.4226,-0.4287,-0.4186,-0.4132,-0.4126,-0.4096,-0.4095,-0.4093,-0.4011,-0.4009,-0.4008,-0.4006,-0.3917,-0.3915,-0.3913,-0.393,0,0,-0.3906,-0.3905,0,0,0,0,0,0,0,0,-0.423,-0.4223,-0.4141,-0.4136,-0.4129,-0.4063,-0.4097,-0.4038,-0.4011,-0.4055,-0.4007,-0.4005,-0.3966,-0.396,-0.3946,-0.3926,-0.3922,-0.3906,-0.3904,-0.3904,-0.3903,0,0,0,0,0,0,0,-0.4234,-0.4226,-0.415,-0.414,-0.4133,-0.4113,-0.4102,-0.4086,-0.402,-0.4051,-0.4044,-0.4035,-0.3963,-0.3949,-0.3944,-0.392,-0.3906,-0.3904,-0.3903,-0.3902,-0.3911,-0.3912,0,0,0,0,0,0,-0.4247,-0.423,-0.4153,-0.4148,-0.4177,-0.4112,-0.41,-0.4086,-0.402,-0.4009,-0.4036,-0.4031,-0.3953,-0.3946,-0.394,-0.3957,-0.3904,-0.3901,-0.39,-0.3909,-0.3911,-0.3913,0,0,0,0,0,0,-0.4249,-0.4241,-0.4157,-0.4187,-0.4175,-0.4112,-0.4096,-0.4085,-0.407,-0.4009,-0.3997,-0.4034,-0.3952,-0.3943,-0.3933,-0.3953,-0.39,-0.3898,-0.3907,-0.391,-0.3912,-0.3991,0,0,0,0,0,0,-0.4253,-0.4242,-0.4247,-0.4188,-0.4174,-0.4151,-0.4097,-0.4084,-0.4067,-0.4059,-0.4004,-0.3993,-0.395,-0.3937,-0.3931,-0.3949,-0.3897,-0.3905,-0.3909,-0.3911,-0.3986,-0.3995,-0.4003,0,0,0,0,0,-0.4257,-0.4273,-0.4248,-0.4239,-0.4179,-0.4153,-0.4144,-0.4094,-0.4069,-0.4074,-0.4035,-0.3995,-0.3951,-0.3937,-0.3929,-0.3947,-0.3904,-0.3908,-0.3911,-0.3982,-0.3993,-0.4003,0,0,0,0,0,0,-0.4337,-0.4264,-0.4236,-0.4233,-0.42,-0.4139,-0.4143,-0.4107,-0.4081,-0.4075,-0.4014,-0.4002,-0.4,-0.3972,-0.3957,-0.396,-0.3922,-0.3925,-0.3979,-0.3989,-0.3998,-0.4005,-0.3895,0,0,0,0,0,-0.4354,-0.4338,-0.4276,-0.4279,-0.4264,-0.4207,-0.4194,-0.4158,-0.4121,-0.4106,-0.4066,-0.4032,-0.4011,-0.3998,-0.3975,-0.3981,-0.3969,-0.399,-0.3998,-0.4006,-0.4009,-0.4012,-0.4021,-0.3925,-0.3925,-0.3924,0,0,-0.4389,-0.4348,-0.4342,-0.4295,-0.4264,-0.425,-0.4196,-0.4182,-0.4172,-0.4104,-0.4093,-0.4063,-0.4021,-0.402,-0.4017,-0.3996,-0.4032,-0.401,-0.4017,-0.4015,-0.4016,-0.4026,-0.4034,-0.3927,-0.3927,-0.3926,0,0,-0.4447,-0.4414,-0.4414,-0.4385,-0.434,-0.4302,-0.4302,-0.4247,-0.4224,-0.4212,-0.4161,-0.4148,-0.4112,-0.4085,-0.4067,-0.4116,-0.4079,-0.411,-0.4156,-0.4159,-0.4167,-0.4173,-0.4193,-0.42,-0.4113,-0.4113,-0.4113,0,-0.4497,-0.4473,-0.4419,-0.4409,-0.4391,-0.4329,-0.4329,-0.4304,-0.4254,-0.4243,-0.4221,-0.4176,-0.4143,-0.4136,-0.4148,-0.4134,-0.4134,-0.4116,-0.417,-0.4176,-0.4181,-0.4199,-0.4206,-0.4117,-0.4117,-0.4116,-0.4116,0,-0.4538,-0.4523,-0.4528,-0.4482,-0.4464,-0.446,-0.4405,-0.4394,-0.436,-0.4325,-0.4314,-0.4273,-0.4241,-0.4236,-0.4203,-0.4225,-0.4213,-0.4181,-0.4142,-0.4196,-0.4211,-0.4218,-0.4123,-0.4122,-0.4121,-0.412,0,0,-0.4644,-0.4568,-0.4571,-0.455,-0.4496,-0.4484,-0.4477,-0.4446,-0.4438,-0.4406,-0.44,-0.4372,-0.4342,-0.4322,-0.4285,-0.4288,-0.4332,-0.4255,-0.4253,-0.4272,-0.4355,-0.4381,-0.439,-0.4307,-0.4308,-0.4308,-0.436,0,-0.4694,-0.4678,-0.4629,-0.4629,-0.4614,-0.4556,-0.4551,-0.4518,-0.4485,-0.4469,-0.4433,-0.4415,-0.4376,-0.4364,-0.4364,-0.4326,-0.4348,-0.4322,-0.4302,-0.4302,-0.4316,-0.4397,-0.4424,-0.4474,-0.4365,-0.4366,-0.4367,0,-0.475,-0.4722,-0.472,-0.4669,-0.4661,-0.4657,-0.4625,-0.461,-0.4573,-0.4549,-0.4526,-0.4485,-0.4477,-0.444,-0.4428,-0.4411,-0.44,-0.4381,-0.4381,-0.4378,-0.4339,-0.4399,-0.4489,-0.4497,-0.4376,-0.4375,-0.4374,0,-0.4829,-0.4791,-0.4786,-0.4769,-0.4708,-0.4707,-0.4682,-0.4643,-0.4628,-0.46,-0.459,-0.4562,-0.4548,-0.4527,-0.4481,-0.4458,-0.4475,-0.4433,-0.4456,-0.4458,-0.4463,-0.4464,-0.4555,-0.4454,-0.4454,-0.4454,-0.4453,0,-0.4891,-0.4893,-0.4821,-0.4818,-0.4818,-0.4762,-0.4765,-0.4734,-0.47,-0.469,-0.4638,-0.4631,-0.4568,-0.4554,-0.4518,-0.4514,-0.4508,-0.4489,-0.448,-0.4495,-0.4497,-0.4488,-0.4483,-0.4456,-0.4455,-0.4455,-0.4454,0,-0.498,-0.4932,-0.4922,-0.4866,-0.4852,-0.4855,-0.4807,-0.4802,-0.4767,-0.4756,-0.475,-0.4694,-0.4675,-0.4626,-0.4594,-0.4569,-0.4577,-0.4558,-0.459,-0.4584,-0.461,-0.4609,-0.4699,-0.4709,-0.4601,-0.4602,-0.4603,0,-0.5023,-0.5023,-0.4967,-0.4957,-0.4934,-0.4918,-0.4903,-0.4848,-0.4835,-0.4793,-0.4794,-0.477,-0.4749,-0.4721,-0.4678,-0.4654,-0.4635,-0.4668,-0.4631,-0.4647,-0.4638,-0.4639,-0.464,-0.4677,-0.4679,-0.468,-0.4681,0,-0.5106,-0.5083,-0.5062,-0.5034,-0.5017,-0.4992,-0.4965,-0.4959,-0.4898,-0.4886,-0.4866,-0.4849,-0.4817,-0.4795,-0.4764,-0.4739,-0.4701,-0.4693,-0.4697,-0.4713,-0.4732,-0.4724,-0.4614,-0.4691,-0.469,-0.4689,-0.4689,-0.4688,-0.5174,-0.5173,-0.5133,-0.5113,-0.5086,-0.5062,-0.5055,-0.5019,-0.5001,-0.497,-0.4939,-0.4923,-0.4887,-0.4841,-0.4819,-0.4806,-0.4786,-0.4792,-0.4794,-0.4796,-0.4804,-0.4733,-0.48,-0.48,-0.4799,-0.4799,-0.4799,0,-0.5256,-0.5228,-0.521,-0.5173,-0.5157,-0.5122,-0.509,-0.5079,-0.5065,-0.5034,-0.5015,-0.4992,-0.4971,-0.4927,-0.4903,-0.4901,-0.4883,-0.4896,-0.4897,-0.4892,-0.4822,-0.4822,-0.4912,-0.4912,-0.4912,-0.4912,-0.4912,-0.4911,-0.5297,-0.5292,-0.5264,-0.5246,-0.5218,-0.5201,-0.5187,-0.5164,-0.514,-0.5117,-0.5099,-0.5071,-0.5035,-0.5007,-0.4987,-0.4975,-0.4969,-0.4989,-0.4971,-0.4907,-0.4897,-0.4887,-0.4886,-0.4987,-0.4988,-0.5042,-0.5042,-0.5043]},{"header":{"parameterUnit":"m.s-1","parameterCategory":1,"la1":30.2991,"la2":30.254,"lo1":-89.0895,"lo2":-89.0444,"dy":0.0017,"dx":0.0017,"nx":28,"ny":28,"refTime":"2025-12-11T09:00:00:Z","depth":0,"parameterNumber":3,"parameterNumberName":"V-component_of_WINDS"},"data":[0,0,0,0,0,0,0,0,0,0,0,0,0,0,0,0,0,0,0,0,0,0,0,0,0,0,0,0,0,0,0,0,0,0,0,0,0,0,0,0,0,0,0,0,0,0,0,0,0,0,0,0,0,0,0,0,0,0,0.9608,0.9608,0,0.9571,0.957,0.957,0.9596,0.9597,0.9598,0.96,0.9558,0.9555,0.9553,0,0,0,0,0,0,0,0,0,0,0,0,0,0.9698,0.9697,0.9608,0.9608,0.9607,0.9571,0.957,0.957,0.9596,0.9597,0.9599,0.96,0.9558,0.9556,0.9553,0,0,0,0,0,0,0,0,0,0,0,0,0,0.966,0.9696,0.9608,0.9616,0.9616,0.9571,0.957,0.957,0.9596,0.9597,0.9599,0.9601,0.9559,0.9556,0.9553,0.9497,0,0,0.9542,0.9541,0,0,0,0,0,0,0,0,0.9662,0.9657,0.9615,0.9615,0.9616,0.959,0.9587,0.9545,0.9595,0.9603,0.96,0.9602,0.9567,0.9563,0.9552,0.9495,0.9493,0.9542,0.954,0.9539,0.9538,0,0,0,0,0,0,0,0.9665,0.9658,0.9593,0.9615,0.9615,0.962,0.9617,0.9579,0.9575,0.9603,0.9605,0.96,0.9567,0.9555,0.9551,0.9492,0.9542,0.9539,0.9537,0.9536,0.9386,0.9384,0,0,0,0,0,0,0.9667,0.966,0.9594,0.9592,0.9644,0.9617,0.9613,0.9596,0.9576,0.9575,0.9598,0.9601,0.956,0.9555,0.955,0.9482,0.9539,0.9536,0.9534,0.9388,0.9385,0.9383,0,0,0,0,0,0,0.9669,0.9661,0.9596,0.9627,0.9619,0.9614,0.9595,0.9595,0.9583,0.9573,0.9572,0.9587,0.9561,0.9554,0.951,0.948,0.9534,0.9531,0.939,0.9387,0.9384,0.9345,0,0,0,0,0,0,0.9671,0.9662,0.9641,0.9626,0.9617,0.9557,0.9593,0.9593,0.9577,0.9581,0.9562,0.956,0.9562,0.9514,0.9506,0.9477,0.9528,0.9393,0.9389,0.9385,0.9349,0.9342,0.9335,0,0,0,0,0,0.9675,0.9631,0.964,0.9632,0.9591,0.9556,0.955,0.9554,0.9575,0.9553,0.9547,0.9561,0.9485,0.951,0.9501,0.947,0.9394,0.939,0.9385,0.9352,0.9343,0.9335,0,0,0,0,0,0,0.9641,0.9629,0.9639,0.9589,0.9573,0.956,0.9533,0.9544,0.9521,0.9525,0.953,0.9525,0.9478,0.947,0.9497,0.9414,0.9443,0.9436,0.9421,0.9412,0.9405,0.9407,0.9526,0,0,0,0,0,0.9628,0.9602,0.9592,0.9549,0.9541,0.9538,0.9523,0.9527,0.9511,0.9504,0.9494,0.9476,0.9449,0.943,0.9404,0.9349,0.9344,0.9323,0.9316,0.931,0.9304,0.9273,0.9263,0.9368,0.9368,0.9369,0,0,0.9601,0.9591,0.9574,0.9542,0.953,0.9501,0.9532,0.95,0.9478,0.9498,0.9456,0.9448,0.9428,0.9378,0.9355,0.9369,0.9274,0.9304,0.93,0.9297,0.9267,0.9257,0.9248,0.9365,0.9366,0.9366,0,0,0.9536,0.9526,0.9489,0.9477,0.9459,0.9458,0.9449,0.9434,0.943,0.9388,0.9402,0.9375,0.9328,0.9313,0.9299,0.9228,0.9239,0.922,0.9181,0.9151,0.9142,0.9135,0.9108,0.9099,0.9214,0.9214,0.9214,0,0.9503,0.9461,0.9468,0.9435,0.942,0.9439,0.94,0.9388,0.9362,0.935,0.9367,0.9307,0.9296,0.9241,0.9224,0.9213,0.9201,0.9221,0.9143,0.9136,0.9129,0.9104,0.9094,0.9211,0.9212,0.9212,0.9212,0,0.9422,0.9392,0.9364,0.9339,0.9322,0.9286,0.9286,0.9267,0.9273,0.927,0.9226,0.9212,0.9183,0.9171,0.9177,0.9117,0.9126,0.9143,0.9172,0.9117,0.9093,0.9083,0.9208,0.9209,0.9209,0.921,0,0,0.9333,0.9314,0.9303,0.9292,0.9274,0.925,0.9215,0.9188,0.9171,0.9153,0.9122,0.9081,0.9097,0.9081,0.9085,0.9058,0.9002,0.9078,0.9078,0.9063,0.8934,0.892,0.8908,0.901,0.9008,0.9007,0.8935,0,0.9266,0.9205,0.9211,0.9153,0.9125,0.9142,0.9111,0.9096,0.9092,0.9066,0.9062,0.9032,0.9056,0.9046,0.9021,0.9014,0.8975,0.9019,0.8979,0.8978,0.8982,0.8896,0.8882,0.8815,0.8926,0.8924,0.8923,0,0.9179,0.9158,0.9098,0.9084,0.9072,0.9044,0.902,0.8996,0.8979,0.8977,0.896,0.8968,0.8931,0.8963,0.8911,0.894,0.8925,0.8919,0.8916,0.8911,0.8946,0.8887,0.8793,0.8783,0.8908,0.891,0.8911,0,0.9118,0.9076,0.9034,0.9024,0.9007,0.8987,0.8978,0.8963,0.8946,0.8924,0.8913,0.8887,0.8872,0.8851,0.8852,0.8875,0.8798,0.883,0.8795,0.8795,0.8776,0.8777,0.8677,0.8769,0.8769,0.8769,0.877,0,0.9042,0.9004,0.9007,0.898,0.8938,0.8944,0.8902,0.8895,0.8882,0.8854,0.8867,0.884,0.8844,0.8816,0.8817,0.8773,0.8766,0.8763,0.8763,0.8761,0.8761,0.8749,0.8753,0.8767,0.8767,0.8768,0.8768,0,0.8966,0.8967,0.8922,0.891,0.8906,0.8875,0.8864,0.8838,0.8836,0.88,0.8792,0.8788,0.8756,0.8755,0.8719,0.8719,0.8665,0.8671,0.8671,0.8671,0.8636,0.8638,0.8523,0.8507,0.8611,0.861,0.8609,0,0.8916,0.8888,0.8873,0.8855,0.8846,0.8818,0.8802,0.8807,0.8788,0.8766,0.8743,0.8714,0.869,0.8638,0.8631,0.8603,0.8607,0.8569,0.8603,0.8601,0.8605,0.8606,0.8602,0.8561,0.856,0.8559,0.8559,0,0.8827,0.8829,0.8805,0.8781,0.8761,0.8742,0.8724,0.8709,0.8712,0.869,0.8659,0.8641,0.8604,0.8573,0.8546,0.8536,0.8547,0.8548,0.8538,0.8535,0.8535,0.8533,0.8651,0.855,0.8551,0.8552,0.8552,0.8553,0.8762,0.8737,0.8722,0.8695,0.8682,0.8666,0.8641,0.8636,0.861,0.8581,0.8586,0.855,0.8533,0.8498,0.8486,0.8457,0.847,0.8456,0.8452,0.8448,0.8444,0.8541,0.8452,0.8453,0.8453,0.8453,0.8453,0,0.8672,0.8664,0.8639,0.8614,0.8592,0.8607,0.8588,0.8568,0.8537,0.852,0.8497,0.846,0.8431,0.8421,0.8393,0.8371,0.8375,0.8363,0.8364,0.8361,0.8434,0.8445,0.836,0.836,0.836,0.836,0.836,0.836,0.8623,0.8581,0.8581,0.8532,0.8524,0.849,0.8478,0.8462,0.8449,0.8408,0.8384,0.8379,0.8365,0.8335,0.8308,0.8306,0.8294,0.8279,0.8279,0.8347,0.8356,0.8365,0.8375,0.8277,0.8277,0.8208,0.8207,0.8206]}]]